Weather History for Rock Hill, SC

Change the Weather History Date:

Tuesday, July 23, 2013

  Actual Average Record
Temperature  
Mean Temperature 80 °F -  
Max Temperature 88 °F 90 °F 101 °F (1952)
Min Temperature 72 °F 70 °F 59 °F (2007)
Cooling Degree Days 15    
Growing Degree Days 30 (Base 50)    
Moisture  
Dew Point 72 °F    
Average Humidity 82    
Maximum Humidity 100    
Minimum Humidity 55    
Precipitation  
Precipitation 0.00 in - - ()
Sea Level Pressure  
Sea Level Pressure 29.83 in    
Wind  
Wind Speed 7 mph (WSW)    
Max Wind Speed 13 mph    
Max Gust Speed 16 mph    
Visibility 9 miles    
Events      
Averages and records for this station are not official NWS values.
T = Trace of Precipitation, MM = Missing Value Source: NWS Daily Summary

Daily Weather History Graph

Daily Weather History Graph

Search for Another Location

Airport:

Trip Planner

Search our weather history database for the weather conditions in past years. The results will help you decide how hot, cold, wet, or windy it might be!

Date:

Astronomy

Jul. 23, 2013 Rise Set
Actual Time 6:27 AM EDT 8:33 PM EDT
Civil Twilight 5:58 AM EDT 9:02 PM EDT
Nautical Twilight 5:24 AM EDT 9:36 PM EDT
Astronomical Twilight 4:46 AM EDT 10:14 PM EDT
Moon 9:07 PM EDT (7/23) 7:29 AM EDT (7/23)
Length of Visible Light 15h 03m
Length of Day
14h 06m
Full, 99% of the Moon is Illuminated
Jul 23
Full
Jul 29
Last Quarter
Aug 6
New
Aug 14
First Quarter
Aug 20
Full

Hourly Weather History & Observations

Time (EDT) Temp. Heat Index Dew Point Humidity Pressure Visibility Wind Dir Wind Speed Gust Speed Precip Events Conditions
12:54 AM 75.9 °F - 73.0 °F 91% 29.85 in 10.0 mi WSW 10.4 mph - N/A   Partly Cloudy
1:54 AM 73.9 °F - 73.0 °F 97% 29.83 in 8.0 mi SW 5.8 mph - N/A   Clear
2:54 AM 73.9 °F - 73.0 °F 97% 29.83 in 6.0 mi SW 8.1 mph - N/A   Clear
3:23 AM 73.9 °F - 73.0 °F 97% 29.86 in 7.0 mi WSW 6.9 mph - N/A   Partly Cloudy
3:51 AM 73.4 °F - 73.4 °F 100% 29.86 in 7.0 mi WSW 5.8 mph - N/A   Mostly Cloudy
3:54 AM 73.9 °F - 73.0 °F 97% 29.82 in 7.0 mi WSW 5.8 mph - N/A   Mostly Cloudy
4:06 AM 73.9 °F - 73.0 °F 97% 29.86 in 8.0 mi SW 8.1 mph - N/A   Overcast
4:42 AM 73.9 °F - 73.0 °F 97% 29.86 in 9.0 mi WSW 5.8 mph - N/A   Overcast
4:54 AM 73.9 °F - 73.0 °F 97% 29.83 in 9.0 mi West 5.8 mph - N/A   Overcast
5:31 AM 73.9 °F - 72.0 °F 93% 29.88 in 9.0 mi West 4.6 mph - N/A   Overcast
5:54 AM 73.9 °F - 72.0 °F 93% 29.84 in 10.0 mi WSW 6.9 mph - N/A   Overcast
6:54 AM 72.0 °F - 71.1 °F 97% 29.86 in 9.0 mi WSW 4.6 mph - N/A   Partly Cloudy
7:10 AM 73.0 °F - 71.1 °F 93% 29.90 in 9.0 mi WSW 5.8 mph - N/A   Mostly Cloudy
7:54 AM 73.9 °F - 71.1 °F 91% 29.86 in 10.0 mi WSW 8.1 mph - N/A   Mostly Cloudy
8:31 AM 75.0 °F - 71.1 °F 87% 29.90 in 10.0 mi WSW 8.1 mph - N/A   Partly Cloudy
8:54 AM 75.9 °F - 71.1 °F 85% 29.86 in 10.0 mi West 8.1 mph - N/A   Clear
9:54 AM 79.0 °F - 70.0 °F 74% 29.86 in 10.0 mi West 10.4 mph - N/A   Scattered Clouds
10:54 AM 82.0 °F 86.3 °F 71.1 °F 69% 29.85 in 10.0 mi West 5.8 mph - N/A   Clear
11:54 AM 84.9 °F 90.1 °F 71.1 °F 63% 29.85 in 10.0 mi WNW 8.1 mph - N/A   Clear
12:54 PM 84.9 °F 90.1 °F 71.1 °F 63% 29.86 in 10.0 mi West 12.7 mph 16.1 mph N/A   Partly Cloudy
1:54 PM 87.1 °F 93.6 °F 72.0 °F 61% 29.84 in 10.0 mi West 8.1 mph - N/A   Clear
2:54 PM 84.0 °F 88.4 °F 70.0 °F 63% 29.82 in 10.0 mi WNW 8.1 mph - N/A   Mostly Cloudy
3:54 PM 88.0 °F 93.8 °F 71.1 °F 57% 29.79 in 10.0 mi WSW 9.2 mph - N/A   Partly Cloudy
4:54 PM 87.1 °F 92.0 °F 70.0 °F 57% 29.78 in 10.0 mi WNW 4.6 mph - N/A   Scattered Clouds
5:54 PM 87.1 °F 91.3 °F 69.1 °F 55% 29.77 in 10.0 mi West 5.8 mph - N/A   Clear
6:54 PM 86.0 °F 90.7 °F 70.0 °F 59% 29.77 in 10.0 mi West 8.1 mph - N/A   Clear
7:54 PM 82.0 °F 86.3 °F 71.1 °F 69% 29.78 in 8.0 mi SW 5.8 mph - N/A   Clear
8:54 PM 80.1 °F 83.6 °F 71.1 °F 74% 29.78 in 10.0 mi WSW 6.9 mph - N/A   Clear
9:54 PM 78.1 °F - 72.0 °F 81% 29.80 in 10.0 mi SW 5.8 mph - N/A   Clear
10:54 PM 75.9 °F - 72.0 °F 87% 29.80 in 10.0 mi WSW 4.6 mph - N/A   Clear
11:54 PM 75.9 °F - 73.0 °F 91% 29.80 in 9.0 mi WSW 6.9 mph - N/A   Clear